Location: Asheville, NC
(35.6000°N, 82.5500°W)
Time: 20:09:37

STARS - Pass Details

Date: 18 March 2018
Orbit: 625 x 641 km, 98.3° (Epoch: 19 March)

Event Time Altitude Azimuth Distance (km) Brightness Sun altitude
Rises 20:16:08 0° 4° (N) 2,923 ? -8.1°
Reaches altitude 10° 20:18:25 10° 357° (N) 2,009 ? -8.6°
Maximum altitude 20:22:31 41° 288° (WNW) 913 ? -9.4°
Drops below altitude 10° 20:26:35 10° 218° (SW) 1,991 ? -10.2°
Sets 20:28:51 0° 211° (SSW) 2,892 ? -10.7°
